Wetbulb
70.54 71.83 72.13 72.95 73.34 73.65 74.35 75.01 75.20 76.56 76.80 75.90 74.33 74.28 73.92 75.34 75.45 76.32 77.74 77.58 77.47 77.20 78.54 76.51 77.39 78.24 77.02 76.95 78.21 76.72 75.81 73.75 75.16 73.28 72.41 72.78 74.20 74.71 75.40 76.33 76.68 75.68 76.55
69.69 71.02 72.14 72.71 73.15 73.81 73.98 74.76 75.63 76.79 76.43 75.82 76.34 75.46 75.36 75.53 76.06 76.64 77.42 77.53 77.22 77.86 77.77 77.42 76.65 77.96 75.90 77.93 77.74 77.23 74.75 74.43 75.45 72.40 72.65 69.22 70.33 72.61 73.61 75.27 75.37 76.00 75.82
69.37 70.61 71.45 72.34 73.22 73.78 74.58 75.05 75.87 76.67 76.81 76.85 76.06 76.80 77.71 76.84 77.23 75.95 76.16 76.64 77.35 77.73 77.90 77.51 77.92 77.32 77.47 75.54 77.83 77.13 76.40 72.57 75.20 76.55 73.08 69.24 68.20 70.55 72.79 73.75 74.29 75.42 75.53
70.35 71.16 71.45 72.10 72.81 73.68 75.36 75.86 76.31 76.76 76.83 77.26 75.92 75.33 76.83 75.06 76.66 75.47 76.23 76.70 77.64 77.20 77.29 77.83 77.64 77.88 77.41 77.51 77.44 77.44 77.17 77.13 73.65 75.38 75.95 77.02 76.02 70.28 68.10 71.71 72.86 74.74 74.63
69.88 70.54 71.61 72.65 73.56 74.05 74.76 75.69 76.50 76.93 76.58 76.92 76.73 74.75 73.80 76.66 74.30 75.49 77.74 77.45 77.75 77.64 77.22 78.08 77.88 78.07 76.64 78.05 78.35 77.99 78.05 76.81 75.47 74.34 76.23 76.84 76.63 76.58 71.79 68.34 69.70 72.92 74.98
69.74 70.81 72.26 73.05 73.54 74.11 74.59 75.30 76.06 76.44 76.72 76.47 76.54 76.10 74.86 74.54 76.78 76.44 75.16 75.49 76.23 77.03 77.29 77.58 77.96 78.18 77.83 77.39 77.25 78.88 77.60 77.52 77.08 76.58 76.62 74.63 73.65 73.18 73.42 72.13 72.34 71.55 73.31
69.47 70.37 71.30 71.95 73.29 73.68 74.08 74.50 75.58 75.71 76.07 76.05 75.93 76.16 75.84 75.76 75.25 76.41 76.69 75.50 77.61 76.78 76.93 78.04 77.99 77.01 78.11 77.67 77.96 77.34 77.88 77.45 76.82 76.89 75.74 76.79 75.80 76.25 75.70 74.34 72.25 72.00 74.09
69.61 69.91 70.11 69.27 70.33 73.58 73.35 72.35 73.83 75.59 75.95 75.92 76.36 76.88 76.97 74.41 75.53 75.45 75.27 77.49 76.18 75.35 77.57 76.72 76.82 77.39 77.55 77.71 78.06 76.40 75.68 76.78 76.19 75.99 77.27 75.94 77.00 77.02 76.19 75.02 73.64 71.27 71.90
69.99 70.08 71.60 72.39 72.99 71.21 71.88 71.32 71.51 74.09 75.63 75.61 75.96 76.22 77.19 76.46 75.38 76.13 76.24 79.12 78.39 76.81 76.85 76.55 76.28 76.40 77.07 77.57 77.97 75.64 76.69 77.52 76.79 76.43 76.69 75.74 75.88 76.47 77.08 76.87 75.86 73.50 70.36
70.60 70.67 71.48 71.77 70.95 69.97 70.25 71.23 73.48 72.76 74.41 75.02 75.74 75.62 75.10 75.31 75.29 76.27 76.43 76.82 77.51 77.89 77.07 76.59 76.40 76.47 76.60 77.80 78.16 76.32 76.98 77.10 76.27 75.58 76.08 76.34 74.63 75.21 75.64 75.58 75.42 75.34 73.53
69.50 69.95 71.26 72.57 72.69 70.81 69.76 69.78 70.50 71.72 74.05 74.29 75.16 74.89 75.22 75.08 75.27 75.07 75.51 76.02 76.74 77.35 77.47 77.20 76.23 76.40 75.90 76.39 77.06 76.91 76.62 76.49 76.39 76.71 76.14 76.17 76.93 74.61 74.21 74.96 75.08 73.97 73.81
66.02 67.64 70.19 70.98 70.55 71.32 69.93 69.31 70.15 70.26 71.58 74.49 74.49 73.63 74.89 75.06 74.76 74.96 75.39 76.52 76.17 77.77 77.46 77.20 77.15 76.95 76.34 76.83 76.39 75.72 75.71 75.95 75.23 75.11 75.79 75.50 74.54 76.10 76.31 74.68 76.72 76.18 75.93
64.38 65.62 67.95 69.23 70.52 70.08 69.09 69.29 70.23 72.05 72.21 71.77 72.13 72.42 72.25 73.94 74.63 75.27 75.56 76.34 76.72 76.49 75.83 76.16 76.00 76.71 76.79 76.27 77.00 77.11 76.45 75.82 75.39 75.39 75.36 75.50 75.55 75.70 74.55 74.84 74.01 73.77 73.80
62.96 62.78 64.09 67.33 68.91 70.22 71.12 71.18 70.89 71.25 71.23 70.25 69.91 69.62 70.15 71.40 72.92 74.41 75.65 75.99 76.67 76.79 76.01 76.24 76.23 76.32 77.11 76.97 76.96 76.71 76.70 76.35 75.80 76.06 75.68 75.27 75.42 75.88 76.06 76.14 76.14 76.12 75.36
63.98 62.45 61.56 63.03 64.35 67.64 71.19 71.73 71.36 71.52 72.51 70.51 69.21 69.93 70.91 71.46 72.25 73.66 74.53 75.79 76.11 76.11 76.91 76.99 77.15 77.44 76.94 76.24 76.51 76.26 76.03 75.66 75.47 75.89 76.28 76.17 75.04 72.01 72.71 75.09 77.26 77.46 74.98
62.83 62.32 61.17 61.92 62.30 62.75 65.54 69.17 70.63 70.74 72.42 70.48 70.00 70.08 71.33 70.94 70.59 71.46 72.60 73.05 73.62 74.43 75.58 75.52 76.07 76.54 75.83 62.48 64.61 70.69 76.14 76.29 75.88 75.92 76.81 76.95 73.72 72.80 68.85 67.77 68.01 71.51 76.23
62.72 61.42 60.42 60.50 61.25 61.23 62.44 62.70 63.67 65.50 65.93 66.65 66.88 67.12 68.05 68.84 67.90 66.02 66.79 69.88 71.27 72.15 72.01 73.20 74.13 69.23 67.65 57.56 59.99 64.07 74.88 76.79 76.70 76.65 76.68 75.90 74.79 74.19 76.15 70.04 66.94 67.21 65.91
59.84 61.27 59.06 59.15 58.52 57.67 57.57 60.37 59.95 60.77 61.17 61.65 61.21 62.67 63.99 65.05 66.12 65.26 65.56 66.87 68.13 71.36 71.79 71.03 71.13 66.03 59.44 54.65 56.84 61.41 73.05 75.62 76.32 76.50 76.46 76.41 76.02 64.38 69.25 76.00 75.80 76.15 76.81
63.67 61.73 61.25 58.49 57.16 56.50 56.75 55.73 56.56 57.82 57.02 58.40 59.24 58.66 58.96 60.26 62.89 64.29 66.17 68.19 69.12 69.33 69.53 70.34 67.01 63.28 58.80 52.41 53.28 62.71 73.23 73.56 74.58 72.65 67.76 70.12 68.78 57.50 57.99 73.33 75.29 75.74 76.08
63.62 63.41 60.69 56.52 55.37 54.78 55.30 53.57 52.56 52.66 52.71 54.46 55.69 57.13 58.45 58.51 58.69 60.32 60.21 63.15 64.23 66.53 67.45 67.19 64.18 57.87 59.69 50.81 51.31 56.79 67.13 68.44 70.39 71.94 68.04 57.97 58.81 53.61 54.25 67.55 70.86 71.79 73.55
61.70 61.44 60.33 57.98 56.67 55.26 53.29 51.86 51.45 50.36 51.02 52.74 53.53 54.75 55.10 55.87 57.09 58.41 59.00 60.79 64.05 64.34 64.27 63.82 63.21 61.09 58.04 53.96 50.22 50.60 53.13 54.18 62.53 66.76 67.02 65.98 53.50 50.81 50.33 52.08 65.66 66.74 64.64
59.66 58.61 56.78 54.67 53.90 55.98 56.84 53.28 51.26 52.28 53.36 53.87 53.70 53.88 55.33 55.32 56.92 57.94 57.55 60.00 59.79 60.11 61.77 61.18 59.53 59.97 59.20 49.97 50.07 49.80 50.26 51.14 52.57 54.02 56.72 57.78 50.70 49.46 49.98 53.66 55.90 54.95 56.78
58.28 59.11 58.89 58.72 58.57 57.02 55.51 52.96 53.10 54.87 54.69 53.49 53.20 53.69 54.75 57.96 58.03 57.66 55.31 55.07 57.85 57.36 56.08 56.94 57.45 58.40 57.29 56.60 50.37 50.03 50.58 52.00 54.58 55.46 52.72 50.42 49.64 49.91 54.11 53.16 55.57 55.22 66.38
59.35 59.60 59.00 58.05 57.18 58.02 57.81 57.80 56.42 56.38 55.79 54.45 54.11 54.48 55.43 56.09 57.52 57.60 57.51 57.45 55.97 55.93 56.34 56.08 54.63 54.83 56.11 52.84 50.50 49.45 52.47 52.79 54.35 53.93 56.40 55.88 53.94 52.78 56.36 58.23 60.46 62.59 62.67
59.17 59.12 58.71 57.93 57.26 57.49 57.09 56.45 56.14 55.74 54.95 54.04 54.50 54.45 54.48 55.14 54.69 54.87 53.65 54.93 51.78 49.49 54.42 54.97 55.85 54.21 54.58 48.10 42.46 42.52 46.13 48.69 48.32 48.38 57.21 57.17 57.33 57.41 58.23 58.84 59.28 60.37 61.17
59.29 58.65 58.55 58.13 57.60 57.06 55.98 55.66 55.46 54.84 54.00 53.33 53.22 53.70 53.92 53.90 54.35 53.07 50.49 43.77 43.88 42.18 41.19 40.97 44.42 49.93 42.11 40.81 40.01 38.92 39.32 40.34 42.52 52.68 52.91 53.88 53.97 55.03 55.71 56.38 57.07 58.04 58.49
MSLP
1014.52 1015.27 1015.98 1016.63 1017.25 1018.06 1018.75 1019.32 1019.69 1020.24 1020.61 1020.68 1020.43 1020.46 1020.40 1020.72 1020.93 1020.97 1021.51 1021.69 1021.70 1021.92 1021.77 1021.33 1021.65 1021.52 1021.38 1021.65 1021.56 1021.25 1021.27 1020.68 1020.87 1020.03 1019.87 1020.15 1020.20 1020.17 1020.13 1020.08 1020.04 1020.42 1020.24
1014.01 1014.88 1015.57 1016.17 1016.80 1017.70 1018.46 1019.22 1019.66 1020.12 1020.45 1020.37 1020.33 1020.27 1020.39 1020.49 1020.57 1020.92 1021.38 1021.43 1021.60 1021.79 1021.70 1021.60 1021.49 1021.60 1021.54 1021.82 1021.76 1021.69 1020.80 1020.82 1021.15 1020.40 1019.92 1019.41 1019.74 1019.66 1019.75 1020.01 1020.07 1020.12 1019.97
1013.42 1014.35 1015.14 1015.68 1016.38 1017.16 1018.10 1018.86 1019.53 1019.96 1020.31 1020.29 1020.58 1021.17 1020.83 1020.93 1021.06 1021.05 1021.14 1021.23 1021.53 1021.61 1021.74 1021.77 1021.42 1021.78 1021.52 1021.35 1021.68 1021.60 1021.50 1020.67 1021.12 1021.20 1020.31 1019.37 1019.15 1019.50 1019.73 1020.04 1019.91 1020.23 1019.91
1013.08 1013.70 1014.63 1015.26 1015.86 1016.60 1017.64 1018.48 1019.28 1019.83 1020.26 1020.38 1020.52 1021.09 1021.22 1021.04 1020.96 1020.60 1020.59 1020.85 1021.37 1021.43 1021.58 1021.71 1021.80 1021.80 1021.37 1021.65 1021.65 1021.43 1021.56 1021.29 1020.77 1020.84 1020.91 1021.00 1020.81 1019.49 1019.05 1019.53 1019.76 1019.95 1019.72
1012.39 1013.11 1014.01 1014.67 1015.40 1016.18 1017.03 1018.03 1018.99 1019.68 1020.00 1020.54 1020.59 1020.85 1020.97 1021.15 1020.71 1020.48 1020.99 1021.11 1021.32 1021.35 1021.37 1021.69 1021.81 1021.81 1021.38 1021.79 1021.79 1021.89 1021.80 1021.51 1021.11 1020.76 1020.82 1020.95 1020.60 1020.56 1019.57 1019.00 1019.28 1019.54 1019.62
1011.92 1012.76 1013.57 1014.34 1015.12 1015.92 1016.80 1017.66 1018.69 1019.46 1019.97 1020.46 1020.83 1021.00 1021.05 1021.07 1021.32 1021.03 1020.79 1020.68 1020.75 1021.02 1021.36 1021.47 1021.66 1021.77 1021.65 1021.80 1021.72 1021.94 1022.01 1021.87 1021.78 1021.33 1021.07 1020.59 1020.24 1020.14 1019.76 1019.41 1019.57 1019.35 1019.55
1011.55 1012.29 1013.34 1014.24 1014.96 1015.80 1016.77 1017.46 1018.39 1019.14 1019.76 1020.20 1020.55 1020.87 1021.09 1021.27 1021.11 1021.07 1021.24 1020.42 1020.73 1020.83 1021.14 1021.48 1021.80 1021.59 1021.87 1021.87 1021.84 1022.13 1022.25 1022.06 1021.86 1021.98 1021.29 1021.33 1021.08 1020.87 1020.51 1019.80 1019.60 1019.36 1019.45
1011.47 1012.03 1013.62 1014.79 1015.54 1015.86 1016.76 1018.07 1018.39 1018.91 1019.47 1019.94 1020.27 1020.66 1020.99 1021.02 1021.20 1021.01 1021.07 1021.30 1020.77 1020.85 1020.75 1021.40 1021.49 1021.58 1021.79 1021.86 1022.01 1021.77 1021.77 1021.79 1022.01 1022.13 1022.13 1021.40 1021.34 1021.22 1020.99 1020.65 1020.03 1019.26 1019.25
1011.31 1012.01 1013.13 1014.24 1015.37 1016.38 1017.25 1017.94 1018.69 1019.00 1019.31 1019.61 1020.10 1020.45 1020.87 1021.03 1020.63 1021.22 1021.21 1021.05 1021.17 1020.20 1021.00 1021.11 1021.31 1021.38 1021.58 1021.72 1021.82 1021.76 1021.95 1022.02 1022.23 1022.06 1022.17 1021.90 1021.35 1021.28 1021.18 1021.03 1020.71 1020.24 1018.99
1011.67 1012.35 1013.13 1014.38 1015.91 1016.98 1017.49 1017.87 1018.56 1019.30 1019.51 1019.74 1019.71 1020.40 1020.54 1020.78 1020.92 1021.09 1021.19 1021.05 1020.63 1020.78 1021.11 1021.06 1021.10 1021.26 1021.47 1021.77 1021.92 1021.67 1021.75 1022.06 1021.98 1021.93 1022.02 1022.13 1021.41 1021.40 1021.15 1021.03 1020.93 1020.74 1020.29
1012.62 1013.48 1013.93 1014.38 1015.37 1017.02 1017.90 1018.06 1019.34 1019.70 1019.43 1019.80 1019.97 1020.18 1020.35 1020.30 1020.66 1020.82 1020.89 1020.85 1020.74 1020.77 1021.05 1021.21 1021.20 1021.31 1021.48 1021.54 1021.87 1022.03 1021.88 1022.06 1022.09 1022.12 1022.12 1022.09 1022.00 1021.60 1020.92 1020.88 1020.87 1020.77 1020.54
1015.05 1015.25 1015.22 1015.60 1016.26 1016.83 1017.94 1018.56 1019.03 1019.43 1019.85 1019.70 1020.26 1020.28 1020.21 1020.33 1020.26 1020.60 1020.62 1020.60 1020.82 1020.87 1020.94 1020.86 1021.16 1021.35 1021.17 1021.23 1021.65 1021.76 1021.61 1022.04 1021.92 1021.94 1021.96 1021.94 1021.58 1021.69 1021.62 1021.29 1021.11 1020.79 1020.88
1016.13 1016.32 1016.13 1016.34 1016.73 1017.32 1017.88 1018.53 1018.88 1019.37 1019.48 1020.15 1020.11 1020.46 1020.61 1020.39 1020.45 1020.46 1020.37 1020.33 1020.59 1020.82 1020.57 1020.69 1020.86 1020.94 1021.03 1021.13 1021.58 1021.70 1021.65 1021.60 1021.66 1021.66 1021.51 1021.65 1021.55 1021.61 1021.36 1021.24 1021.10 1020.66 1020.54
1016.47 1016.91 1017.02 1017.04 1017.28 1017.19 1017.37 1018.06 1018.91 1019.17 1019.63 1020.03 1020.38 1020.56 1020.72 1020.64 1020.55 1020.37 1020.35 1020.22 1020.38 1020.59 1020.51 1020.50 1020.58 1020.58 1020.74 1021.08 1021.29 1021.44 1021.55 1021.47 1021.41 1021.35 1021.30 1021.35 1021.37 1021.42 1021.75 1021.48 1021.30 1021.13 1021.02
1016.53 1017.36 1017.71 1018.02 1018.02 1017.71 1017.70 1017.98 1018.50 1018.93 1019.23 1019.85 1020.53 1020.34 1020.70 1020.74 1020.69 1020.68 1020.69 1020.42 1020.40 1020.32 1020.50 1020.36 1020.41 1020.39 1020.66 1020.98 1021.52 1021.41 1021.35 1021.37 1021.21 1021.01 1020.91 1020.77 1020.65 1021.17 1021.55 1021.64 1021.25 1021.30 1021.09
1016.58 1017.53 1018.32 1018.68 1018.72 1018.69 1018.66 1018.54 1018.68 1019.02 1019.15 1019.92 1020.30 1020.68 1020.52 1020.97 1021.10 1021.07 1021.02 1020.84 1020.80 1021.03 1020.88 1020.61 1020.60 1020.53 1020.81 1022.36 1022.37 1021.98 1021.11 1020.90 1020.84 1020.77 1020.71 1020.64 1020.69 1020.96 1021.44 1021.71 1021.69 1021.93 1021.85
1016.79 1017.80 1018.52 1019.03 1019.35 1019.49 1019.43 1019.44 1019.56 1019.73 1020.05 1020.47 1020.87 1021.12 1021.32 1021.25 1021.60 1021.66 1021.84 1021.53 1021.25 1021.32 1021.44 1021.48 1021.41 1022.17 1022.62 1023.39 1022.86 1022.52 1021.49 1020.64 1020.56 1020.48 1020.54 1020.45 1019.94 1019.96 1020.90 1020.88 1021.17 1021.60 1021.49
1017.06 1017.88 1018.88 1019.54 1020.05 1020.26 1020.30 1020.33 1020.49 1020.55 1020.87 1021.20 1021.65 1021.86 1021.95 1021.90 1022.09 1022.26 1022.10 1022.03 1021.87 1021.63 1021.68 1021.76 1022.16 1022.90 1023.64 1023.85 1023.17 1022.55 1021.69 1020.77 1020.48 1020.42 1020.58 1020.72 1020.97 1022.06 1021.98 1021.16 1020.62 1020.33 1020.17
1016.65 1017.77 1018.79 1019.88 1020.53 1020.88 1021.15 1021.25 1021.44 1021.60 1021.79 1021.93 1022.10 1022.38 1022.68 1022.48 1022.47 1022.22 1022.10 1021.91 1021.83 1022.10 1022.04 1022.21 1022.78 1023.34 1024.06 1024.17 1023.50 1022.44 1021.54 1021.27 1021.09 1021.34 1021.61 1021.61 1022.19 1023.01 1022.56 1021.85 1020.80 1020.06 1019.20
1016.90 1017.79 1019.33 1020.30 1020.92 1021.47 1021.76 1022.05 1022.50 1022.73 1022.99 1023.12 1023.08 1023.09 1023.14 1023.11 1023.15 1023.06 1023.02 1022.66 1022.53 1022.27 1022.10 1022.63 1023.41 1023.84 1024.26 1024.99 1024.19 1023.36 1022.27 1021.83 1021.40 1021.72 1022.40 1022.93 1023.11 1023.10 1022.93 1022.34 1021.46 1020.60 1019.96
1017.85 1018.82 1019.67 1020.52 1021.27 1021.77 1022.17 1022.52 1022.99 1023.39 1023.72 1023.83 1023.90 1023.85 1023.79 1023.72 1023.61 1023.51 1023.35 1023.05 1022.59 1022.65 1022.89 1023.12 1023.71 1024.03 1024.56 1025.12 1025.05 1024.64 1024.22 1023.80 1022.55 1021.76 1021.77 1022.05 1022.94 1023.29 1023.15 1022.98 1021.87 1021.41 1021.30
1018.78 1019.53 1020.27 1021.12 1021.82 1022.17 1022.25 1022.90 1023.36 1023.82 1023.88 1023.98 1024.11 1024.29 1024.00 1023.82 1023.85 1023.92 1023.82 1023.48 1023.40 1023.31 1023.34 1023.66 1023.65 1023.98 1024.31 1025.30 1025.43 1025.04 1024.91 1024.91 1024.16 1023.68 1023.08 1022.92 1023.35 1023.12 1022.89 1022.56 1021.56 1021.45 1021.39
1019.09 1019.54 1020.16 1020.78 1021.39 1021.97 1022.58 1023.14 1023.73 1023.83 1024.00 1024.05 1024.11 1024.10 1024.04 1024.01 1024.02 1023.98 1024.13 1024.00 1023.95 1023.65 1023.96 1023.65 1023.55 1023.89 1024.27 1024.49 1025.20 1025.21 1025.00 1024.46 1023.86 1023.81 1023.47 1023.50 1022.93 1022.79 1021.99 1021.82 1021.44 1021.29 1019.99
1018.93 1019.27 1019.96 1020.69 1021.32 1021.75 1022.04 1022.51 1023.31 1023.50 1023.59 1023.95 1024.12 1024.11 1023.82 1024.02 1024.09 1023.91 1024.02 1023.95 1024.08 1024.18 1024.11 1024.04 1024.14 1024.39 1024.59 1025.19 1025.31 1025.08 1024.10 1023.87 1023.41 1023.40 1022.57 1021.97 1022.43 1022.11 1022.33 1021.35 1021.21 1020.99 1020.06
1018.72 1019.32 1019.78 1020.43 1021.26 1021.86 1022.31 1022.72 1023.17 1023.42 1023.41 1023.59 1023.82 1023.77 1023.80 1023.75 1024.29 1024.63 1025.16 1025.00 1025.96 1026.20 1025.19 1024.92 1024.80 1024.82 1024.87 1026.28 1026.98 1026.71 1026.24 1025.53 1024.98 1024.82 1022.28 1021.85 1021.67 1021.35 1021.21 1020.88 1020.66 1020.35 1019.99
1018.71 1019.35 1019.74 1020.27 1021.06 1021.66 1022.22 1022.75 1023.13 1023.26 1023.28 1023.36 1023.36 1023.33 1023.22 1023.49 1023.70 1024.35 1025.55 1026.84 1026.95 1027.19 1027.16 1027.11 1026.74 1026.18 1027.08 1027.25 1027.11 1026.91 1026.53 1025.93 1025.28 1023.88 1023.01 1022.38 1022.14 1021.76 1021.58 1021.21 1020.79 1020.46 1020.29
Wind_Speed
15 15 14 13 13 13 12 12 10 8 7 6 6 6 6 5 5 4 5 5 4 4 3 4 4 2 2 4 2 2 2 4 3 5 5 5 5 6 3 2 2 6 3
17 15 15 15 15 13 12 12 11 9 7 6 5 4 4 5 4 4 4 4 5 5 4 3 4 1 5 2 3 3 1 3 4 3 3 4 6 5 4 3 2 3 3
18 17 16 15 14 15 14 13 12 10 9 6 5 3 4 3 5 6 6 6 6 6 3 4 1 3 4 4 2 2 4 4 3 4 5 3 3 3 3 4 4 4 3
17 17 17 16 15 14 14 13 12 11 9 9 7 8 4 3 6 5 4 5 6 6 6 4 4 3 2 2 3 2 2 6 3 3 4 5 5 3 6 5 4 4 5
19 18 18 17 16 14 14 13 12 11 10 9 7 7 8 4 6 5 5 4 6 6 7 5 5 4 5 4 1 3 3 2 3 3 2 2 2 3 4 3 5 4 2
20 18 17 15 15 13 13 12 13 11 11 10 10 8 4 6 4 5 6 6 6 7 6 7 5 5 3 4 4 2 2 4 4 3 3 5 4 5 2 1 2 2 3
18 18 14 13 14 15 14 12 13 12 12 11 10 9 7 6 5 5 6 4 1 3 8 6 5 6 4 3 2 4 2 2 1 4 2 2 3 4 3 3 3 2 2
17 18 17 11 9 16 14 10 8 11 12 11 10 8 7 6 5 7 3 6 6 6 6 8 7 6 6 5 4 6 6 4 4 2 4 3 1 2 3 5 6 3 4
18 18 14 15 14 9 13 11 7 6 10 11 9 9 7 7 6 4 5 5 4 4 6 8 8 7 7 7 5 6 5 3 6 4 4 6 3 2 2 3 4 6 5
17 14 14 15 13 10 6 2 5 5 6 11 9 8 9 7 6 5 6 4 2 4 4 6 7 7 8 7 6 5 7 6 6 6 3 6 6 4 4 4 3 4 6
11 10 9 11 15 13 9 11 4 4 5 6 7 7 8 7 6 6 6 4 4 5 6 6 8 7 7 7 7 5 6 6 7 6 6 7 6 8 6 5 5 5 5
5 5 9 8 8 13 12 10 9 6 7 8 8 7 7 7 7 8 8 7 7 5 5 5 7 7 8 7 8 8 5 8 8 7 8 8 7 7 8 7 7 7 6
6 5 8 10 10 12 11 10 10 12 7 4 3 4 3 4 8 8 9 8 8 6 7 6 5 6 6 7 8 8 8 8 8 7 7 7 8 7 9 7 9 8 7
5 3 2 3 4 8 10 14 10 9 7 5 5 5 4 3 3 8 7 7 7 7 9 8 7 6 5 5 6 7 7 7 7 8 8 8 8 8 8 9 8 8 8
8 6 3 1 1 2 9 12 11 11 10 10 7 8 6 4 4 2 4 2 3 4 6 8 7 7 6 5 7 7 7 7 8 9 8 10 8 6 7 8 7 8 8
6 6 5 4 4 4 4 5 8 10 11 10 10 8 8 6 6 3 3 3 3 2 3 4 4 5 2 12 10 8 7 8 8 8 8 8 8 10 10 10 11 10 9
8 7 6 5 5 6 6 7 7 8 9 9 7 6 4 6 6 5 5 3 3 4 4 3 4 8 10 15 9 9 9 8 8 8 7 8 8 4 8 11 12 11 13
8 8 7 7 7 8 8 8 9 8 8 10 9 7 6 5 4 4 5 3 1 1 1 4 7 6 10 16 10 7 9 6 6 6 6 7 5 11 10 10 10 11 11
11 9 9 10 9 8 8 9 9 10 8 8 9 8 5 5 4 4 3 2 2 3 4 3 8 6 10 16 18 13 3 4 2 6 10 7 6 9 11 7 10 12 11
9 11 14 11 10 9 9 11 9 8 9 7 6 6 5 5 4 4 3 2 3 3 5 4 6 6 8 16 17 16 5 3 2 4 7 10 8 10 9 6 6 7 8
12 12 11 10 10 10 8 9 9 8 6 5 5 4 5 5 3 4 3 1 3 4 3 4 4 6 7 10 13 16 7 7 6 2 2 4 10 12 10 6 6 7 8
13 11 11 10 8 6 7 9 7 5 5 4 4 3 3 1 3 3 2 3 3 3 3 4 4 4 4 8 9 10 10 10 4 5 6 8 11 11 12 10 4 9 8
11 12 11 10 9 8 8 8 7 6 5 5 5 4 3 2 3 3 3 3 3 3 4 4 3 2 1 3 5 3 3 4 6 3 8 13 11 13 12 8 10 11 8
11 9 10 9 8 7 6 7 6 5 6 5 4 5 5 3 1 2 2 2 2 2 3 3 3 3 2 4 7 7 7 3 7 5 7 6 9 11 8 5 6 6 8
11 10 9 9 9 8 7 7 7 6 6 5 4 4 4 4 4 4 6 3 7 8 4 2 2 3 2 7 7 6 7 8 7 11 5 4 4 4 5 5 5 6 6
12 11 10 10 10 9 8 7 6 6 5 6 5 3 3 4 3 5 7 13 11 8 10 9 11 7 10 6 7 8 9 10 10 2 5 5 6 6 8 7 7 7 8
Wind_Direction
171 169 177 171 167 171 176 178 179 171 188 189 189 170 179 153 168 157 146 165 171 159 183 138 163 214 172 46 65 172 83 79 53 260 127 116 160 145 138 128 122 121 130
171 178 184 183 182 177 184 188 191 182 204 190 210 203 195 178 168 167 172 172 181 178 167 178 157 89 131 127 74 2 309 79 46 9 251 144 158 111 79 115 138 76 129
196 183 189 193 190 182 188 189 195 187 201 195 193 182 188 190 197 177 190 175 183 182 174 174 232 159 268 147 162 98 346 74 85 21 333 205 83 190 138 152 116 166 148
199 186 192 195 198 189 186 187 191 188 191 191 193 205 198 214 253 196 182 172 199 190 187 180 182 215 233 124 159 111 12 304 63 145 73 22 2 359 145 132 120 176 185
196 193 196 195 200 189 188 185 183 185 185 187 227 196 219 316 216 202 150 208 173 204 197 189 187 186 216 157 160 181 16 110 1 36 119 38 135 118 312 112 134 165 155
199 198 198 196 201 190 190 180 179 186 188 198 205 226 239 216 230 252 182 200 183 182 194 188 193 184 162 180 199 180 160 16 15 31 353 17 8 38 28 210 175 18 129
201 198 198 203 192 193 190 181 181 189 193 198 208 215 221 251 249 233 266 225 190 237 159 194 202 184 200 196 217 186 169 189 329 325 19 34 36 9 6 329 87 299 101
199 201 168 194 194 196 187 172 195 195 199 204 208 215 214 213 233 236 213 252 170 199 143 190 202 202 201 208 192 209 230 170 223 236 340 317 9 357 359 360 332 201 183
204 203 183 196 185 160 157 165 203 213 218 208 211 218 222 245 265 229 261 169 255 163 205 196 205 208 206 214 197 243 220 231 230 221 241 277 268 277 326 327 336 331 317
198 201 193 178 174 169 159 100 187 192 189 242 218 214 209 218 247 245 231 277 283 242 188 207 211 207 217 222 223 211 208 232 238 237 227 266 271 262 254 284 301 307 314
177 195 193 183 177 152 155 136 117 247 185 232 210 227 225 219 216 244 253 236 253 259 218 212 221 223 224 220 220 259 278 235 244 260 255 257 271 271 267 251 264 279 279
119 169 183 181 170 165 166 159 156 210 241 216 213 196 224 231 232 229 236 238 234 229 234 236 224 217 226 221 218 228 252 240 236 245 255 259 253 235 249 266 268 296 309
137 160 189 192 193 185 169 170 169 188 186 193 195 202 190 225 246 250 242 236 240 228 236 233 240 233 228 215 222 231 226 226 231 249 253 255 254 253 273 274 286 264 249
138 118 61 138 208 200 194 181 168 161 149 153 179 182 208 197 242 260 247 239 234 228 237 233 230 226 213 203 209 214 229 236 236 245 243 248 255 259 269 261 254 257 268
162 149 122 95 70 8 193 180 174 177 171 171 176 183 177 178 205 205 239 201 234 242 244 226 218 214 212 214 211 219 224 236 242 242 244 234 243 274 269 275 265 296 266
139 134 137 133 87 55 75 126 157 162 172 167 168 159 146 117 82 72 171 160 120 44 319 251 258 230 158 11 354 297 244 225 233 244 240 252 219 233 227 242 260 272 274
144 138 135 120 103 77 71 79 80 97 95 100 91 94 120 142 120 88 29 35 96 133 113 49 95 57 12 358 330 300 265 247 244 250 258 260 248 244 266 222 230 244 240
136 129 123 107 88 78 59 85 83 82 96 103 93 80 86 95 121 146 162 170 116 110 111 132 103 72 43 4 358 310 268 253 255 267 269 265 320 27 342 288 274 264 264
139 129 117 113 105 96 90 76 78 90 75 90 99 93 91 102 141 138 145 138 178 201 184 164 92 83 47 14 3 332 336 15 349 44 44 62 55 17 356 304 283 280 278
117 119 121 112 104 100 103 93 75 72 77 72 73 84 93 102 99 99 95 145 168 184 130 116 110 82 64 26 21 4 342 81 350 171 109 72 30 2 355 324 307 290 295
122 119 116 110 116 119 106 102 102 94 102 86 68 84 92 95 88 91 74 49 106 111 122 132 110 77 40 53 30 24 36 357 329 332 3 23 26 344 318 292 292 305 327
135 124 125 123 115 102 129 112 103 108 109 115 99 90 89 78 110 96 60 106 122 133 156 165 190 133 131 29 57 37 22 356 354 331 351 324 337 309 295 290 341 290 278
147 154 145 141 137 146 143 124 131 135 131 136 124 121 91 78 105 127 132 153 158 166 216 205 198 176 60 68 111 146 320 349 335 12 314 277 283 289 284 243 278 273 263
160 155 149 151 143 138 133 122 141 149 149 149 155 161 166 126 116 172 158 173 175 205 199 182 188 181 134 33 4 352 340 344 296 358 295 292 266 261 261 288 339 321 336
167 167 171 166 159 156 150 148 154 165 166 163 177 178 171 192 146 45 16 46 47 9 322 44 344 330 52 40 352 344 338 334 333 312 307 331 350 341 353 343 346 334 336
175 182 181 175 171 171 167 164 164 176 186 189 193 173 183 186 188 163 120 57 68 59 49 35 17 102 64 10 338 323 313 308 302 289 358 9 360 359 354 344 344 342 341